Theta_e
295 295 295 294 293 296 297 296 292 298 298 303 313 310 310 312 314 315 317 317 318 317 319 320 320 320 321 321 321 322 321 321 321 322 322 321 320 320 319 320 319 318 317 317
291 296 293 294 295 297 299 299 298 295 300 312 311 311 310 311 313 313 313 313 314 315 316 316 316 316 317 317 317 318 317 317 318 318 318 318 318 318 317 317 317 316 315 313
288 294 291 288 296 297 299 301 300 294 299 310 307 308 309 311 311 311 311 311 312 313 313 314 314 315 314 314 315 314 313 313 314 314 313 314 315 315 315 312 313 312 311 310
286 287 283 298 303 302 301 300 301 298 297 308 309 310 312 313 311 309 309 309 310 311 311 311 312 311 312 312 311 311 310 310 311 311 312 313 312 311 310 310 310 310 310 310
286 286 295 299 300 301 299 299 303 304 306 308 309 309 307 310 311 309 309 309 310 309 309 308 308 308 308 308 308 308 307 308 309 311 310 311 310 308 308 308 308 308 307 306
287 285 286 298 303 305 302 291 309 308 306 306 307 297 300 308 309 308 308 307 307 308 307 307 307 307 306 304 304 304 306 308 309 309 309 308 308 306 307 307 307 306 305 304
285 284 291 298 303 308 290 298 311 309 307 307 300 301 302 305 305 305 304 303 302 302 301 302 304 305 303 303 302 304 306 308 308 308 308 307 306 305 305 304 303 302 300 301
290 289 287 303 303 298 308 314 312 311 307 300 296 296 297 297 298 299 300 300 300 302 303 304 306 305 302 303 306 306 306 306 306 306 306 305 305 305 304 305 305 303 304 301
289 287 296 306 307 312 316 313 312 308 305 298 293 292 291 291 293 295 297 297 297 300 302 303 305 305 303 304 305 306 306 305 305 305 304 304 303 301 299 300 299 299 299 299
291 293 299 306 310 312 314 310 310 306 301 296 292 291 290 291 292 293 296 298 300 301 300 301 302 302 303 304 304 304 304 304 303 303 303 302 301 299 294 292 293 294 294 295
289 293 297 299 304 306 306 306 302 300 297 295 293 292 292 292 293 294 294 296 299 299 300 300 301 302 303 304 304 303 303 303 304 303 303 301 299 297 295 291 288 289 289 292
286 294 295 295 300 302 301 300 298 296 295 294 294 293 294 294 295 296 297 299 300 301 300 300 301 301 302 304 304 303 301 300 300 301 300 300 299 294 287 287 286 286 286 286
291 297 296 296 296 297 297 297 297 295 295 294 296 297 296 296 297 299 299 300 300 299 300 300 300 300 301 302 302 302 301 301 299 299 298 297 297 296 295 288 286 286 286 286
296 296 293 295 292 296 295 295 295 294 294 295 296 298 297 298 299 299 298 300 300 300 299 299 298 298 300 301 300 299 298 292 298 297 297 296 296 295 295 294 294 292 288 288
294 296 296 297 297 296 297 297 295 295 296 296 298 298 298 298 298 298 299 299 299 298 297 297 297 297 299 300 299 299 298 298 297 296 295 295 295 295 295 294 294 293 292 290
296 297 298 298 300 301 300 299 297 297 298 298 297 297 298 299 298 298 299 299 297 295 296 296 296 298 299 299 298 296 294 289 292 296 295 295 294 294 293 293 293 293 291 289
296 295 297 298 298 298 298 298 298 297 297 297 297 298 298 298 298 297 297 298 297 296 296 296 296 297 297 298 297 296 295 294 287 295 294 294 294 293 293 293 292 292 292 289
302 300 298 298 297 296 296 296 297 297 296 297 297 297 297 297 296 296 296 296 296 295 296 297 297 297 297 297 297 296 295 295 294 293 293 292 293 293 293 292 292 291 292 291
301 298 298 297 296 296 296 295 296 296 297 297 297 296 297 297 297 297 297 295 294 293 293 295 292 295 295 291 294 296 295 294 293 293 293 290 293 293 291 292 292 291 291 291
299 299 298 297 297 296 295 296 296 296 297 297 297 296 296 296 297 297 298 295 295 295 297 296 296 295 294 294 292 295 294 294 293 292 291 292 292 291 292 289 290 291 291 291
298 298 297 297 297 297 297 298 296 295 296 296 296 295 296 297 297 297 296 293 295 296 296 293 295 294 294 293 294 294 294 293 292 292 291 291 291 290 290 290 290 290 290 290
300 298 298 297 297 297 298 298 297 296 296 295 296 296 296 295 296 297 298 296 295 289 296 295 294 287 291 286 294 293 293 292 292 292 291 290 290 290 290 289 289 289 290 290
303 301 299 298 298 298 298 298 298 297 295 295 295 296 296 296 297 295 293 296 296 294 297 293 286 285 284 296 294 294 293 292 292 292 291 291 291 291 290 289 289 289 289 289
304 303 301 301 300 299 297 298 298 297 296 296 296 296 296 295 296 297 295 290 288 291 295 290 288 285 282 295 294 293 293 293 292 292 292 284 292 291 291 290 289 290 289 289
305 305 302 300 299 298 299 299 298 297 296 296 296 296 297 298 296 295 295 294 287 292 294 284 285 284 294 295 294 293 292 292 291 293 292 292 291 291 291 291 290 289 289 289
305 304 303 302 301 300 299 299 297 297 296 294 295 296 297 297 297 296 295 293 295 292 294 292 293 293 296 295 294 293 293 292 292 292 290 292 291 291 290 290 290 290 289 289
305 300 303 302 301 300 299 299 298 297 297 297 296 297 297 297 296 296 293 295 295 296 296 295 294 291 295 294 294 294 294 295 289 291 292 293 292 291 290 290 290 290 289 289
Wind_Speed
13 9 5 7 18 27 25 22 8 7 15 20 25 27 22 19 19 20 20 20 19 19 18 18 19 18 17 17 16 15 15 14 13 11 10 10 8 7 5 2 2 3 4 5
12 12 4 10 12 22 25 19 15 13 10 11 20 22 22 19 20 21 23 22 21 20 20 19 18 17 16 16 15 14 14 13 12 10 10 8 6 5 3 3 6 7 7 6
6 8 12 7 25 29 22 20 6 2 6 24 21 21 18 19 21 24 23 22 21 20 19 17 17 16 16 15 14 13 13 12 11 9 9 8 7 8 9 7 6 5 5 6
7 6 6 9 27 23 21 14 2 8 8 18 22 19 17 19 23 23 22 21 20 18 18 17 16 15 14 14 13 13 13 12 10 10 9 8 10 7 6 5 4 4 5 5
5 4 5 14 17 22 18 10 24 2 21 22 24 21 17 21 21 22 22 21 19 18 18 17 16 15 14 14 13 13 12 11 9 9 9 8 11 6 6 4 6 5 5 8
3 5 2 11 13 20 12 2 29 21 22 25 24 18 13 19 22 23 21 18 17 17 17 17 15 15 14 14 11 13 11 9 10 10 9 9 8 8 7 6 7 6 7 8
6 5 4 9 16 24 5 5 26 27 19 20 14 11 19 21 21 20 19 19 17 16 14 13 11 12 16 14 11 9 10 10 9 10 9 9 9 8 7 6 6 5 4 3
2 4 4 8 9 4 6 22 25 24 23 27 23 20 19 20 18 18 20 17 13 14 14 13 14 14 13 12 9 9 10 10 10 9 8 7 7 5 5 3 3 4 3 3
5 3 8 1 6 8 18 24 23 25 25 27 25 23 19 17 17 16 16 16 11 13 16 13 12 11 12 11 10 10 10 10 9 8 7 7 7 9 8 8 7 7 7 6
0 12 15 14 15 20 25 23 23 23 25 26 26 23 22 16 14 12 11 11 13 15 15 14 11 11 10 9 9 9 9 9 8 7 9 9 8 9 9 9 8 8 8 8
4 7 10 19 16 18 24 25 26 25 24 23 26 21 20 15 15 11 10 11 12 12 13 13 12 11 9 8 8 8 7 6 6 7 6 9 10 9 9 9 9 8 8 8
4 8 12 14 16 20 23 24 24 26 24 21 22 21 17 15 12 12 12 11 12 13 13 13 12 11 9 8 7 7 7 6 5 5 6 6 9 9 13 12 10 11 9 9
5 12 19 19 19 22 25 23 23 23 21 21 15 19 16 16 15 14 15 14 14 14 13 12 12 11 10 10 9 8 7 6 6 6 6 6 6 5 8 6 6 7 8 7
9 8 19 15 13 20 23 23 24 21 19 16 17 16 18 18 16 16 15 14 14 13 12 11 11 11 10 9 10 10 9 4 7 7 6 7 7 6 6 7 5 7 5 7
17 13 16 16 19 19 19 19 20 19 19 18 16 17 17 17 17 16 14 14 13 12 11 11 11 11 10 10 10 10 7 7 7 8 7 6 6 6 6 6 6 6 8 6
13 9 12 19 21 20 21 21 21 19 18 18 18 17 17 16 16 15 13 12 11 11 11 11 10 9 9 9 10 10 9 7 5 6 6 7 6 7 6 6 6 7 7 10
15 15 15 18 17 18 18 17 17 17 17 17 17 17 16 16 15 15 14 13 12 12 11 11 10 9 9 8 8 7 7 7 3 7 7 7 7 7 6 6 7 6 6 7
16 15 14 15 16 17 17 17 16 17 16 16 15 15 15 14 14 14 13 13 13 13 12 11 10 9 9 9 7 7 7 7 7 7 7 8 7 6 6 6 7 7 7 5
15 16 16 16 15 16 15 15 15 15 14 13 14 14 14 14 13 13 12 12 13 12 12 11 3 9 8 8 7 6 6 6 7 6 6 3 5 6 7 7 7 7 8 8
15 15 15 15 16 15 15 14 14 13 13 13 13 13 13 12 12 11 11 12 11 9 10 9 9 9 9 8 9 7 7 7 7 7 6 6 7 6 6 4 6 8 8 8
14 14 15 15 14 15 13 13 13 13 12 12 12 12 12 11 10 11 11 9 10 9 7 3 6 6 6 5 5 7 8 7 7 7 7 6 5 6 7 7 7 7 8 8
11 12 13 13 13 13 12 12 12 12 12 12 12 11 11 10 8 8 9 9 8 10 5 7 7 8 5 10 7 7 6 6 6 6 6 6 7 7 7 7 8 7 7 8
10 11 11 11 12 13 13 11 11 11 12 11 11 10 9 7 7 7 7 9 7 5 1 9 4 4 6 1 5 5 6 6 5 5 6 5 6 6 7 8 8 8 8 8
11 11 11 12 12 12 12 11 11 11 10 10 9 8 7 6 6 8 8 10 10 3 9 7 4 3 8 2 4 5 4 4 4 4 4 1 3 4 5 7 7 8 8 8
10 11 10 11 10 9 11 11 11 11 10 10 9 7 7 4 6 7 7 8 7 6 9 5 2 5 6 3 3 3 3 6 6 3 3 4 4 4 4 5 6 7 7 7
10 8 8 8 8 8 9 9 8 8 8 8 7 6 5 6 7 7 8 8 8 6 8 7 7 5 1 2 1 4 3 4 3 1 3 3 5 5 4 4 6 7 7 7
9 8 8 6 7 7 8 7 8 8 8 8 8 8 8 8 6 6 7 7 7 5 5 6 6 4 1 3 2 1 0 2 2 5 5 4 4 5 5 5 5 7 7 7
Wind_Direction
307 302 217 236 211 213 226 236 213 163 141 237 124 128 123 132 138 141 143 130 120 115 109 110 113 114 113 108 106 107 103 99 98 99 101 98 95 93 94 79 18 323 307 309
301 277 250 264 193 216 229 196 242 282 178 130 115 119 125 140 143 130 117 111 108 105 108 112 110 106 107 104 103 103 102 100 100 101 97 96 95 87 81 30 21 352 28 25
278 327 283 258 220 212 221 233 209 258 297 126 129 123 135 136 126 116 113 114 113 112 110 109 107 107 104 104 103 101 99 96 95 93 87 87 81 63 39 37 23 35 39 30
290 306 181 216 200 213 207 213 216 105 293 131 121 115 127 127 118 113 110 108 107 108 106 106 101 100 100 94 95 92 88 84 80 81 80 74 71 65 59 60 47 41 38 9
284 277 126 125 159 194 180 173 122 103 114 109 110 109 94 106 105 109 113 116 109 107 99 96 93 91 90 85 86 84 83 79 80 78 67 60 64 55 41 32 46 22 30 34
303 309 93 82 109 82 59 339 124 130 122 121 122 104 112 115 107 99 101 107 113 109 108 101 95 94 89 81 83 73 79 79 68 65 68 61 51 50 36 21 44 15 21 52
252 267 39 345 335 124 148 76 116 123 126 114 93 87 108 104 103 108 107 107 107 101 100 103 109 102 83 75 77 82 85 83 83 86 74 68 66 51 46 46 42 38 32 8
261 59 45 10 335 136 110 122 122 129 110 108 98 93 95 96 101 107 109 106 105 104 95 91 84 87 96 96 102 100 96 92 88 69 64 87 81 84 71 39 134 137 178 144
36 294 253 291 81 260 124 124 110 113 117 116 110 105 100 103 104 100 100 96 86 96 100 97 98 103 106 104 99 98 96 96 91 92 99 95 70 40 35 15 8 17 4 13
314 1 35 62 59 58 83 94 103 106 116 115 112 111 106 98 91 93 93 112 113 105 101 99 97 97 97 103 103 101 102 102 89 67 75 43 44 72 41 23 12 31 12 10
351 341 33 37 61 81 88 95 101 103 108 109 110 105 111 113 108 108 101 96 104 104 101 101 100 97 98 100 105 105 99 96 109 96 86 113 68 35 83 53 37 35 16 15
34 348 67 63 67 84 89 91 96 102 101 95 101 108 115 116 117 120 113 109 105 105 102 99 96 92 89 90 98 105 105 77 28 70 75 66 135 110 61 103 113 102 85 35
60 64 79 80 73 77 87 90 95 96 96 105 112 114 112 108 106 112 115 114 108 105 102 96 91 87 79 76 75 73 72 94 101 64 69 64 59 42 131 141 141 161 129 97
52 60 75 77 88 87 90 90 90 90 93 97 105 110 111 113 115 108 104 105 103 103 103 98 92 84 84 90 99 101 97 1 69 51 53 62 59 54 49 34 55 123 166 62
65 63 85 106 116 119 115 119 114 114 118 116 113 108 107 108 105 103 102 101 103 102 99 94 89 83 77 71 62 45 68 55 75 79 59 44 63 57 44 43 38 42 37 3
116 129 146 110 105 107 105 103 103 106 107 105 103 102 104 105 105 107 108 104 98 88 85 83 82 80 84 91 101 100 84 9 25 69 69 63 54 50 48 39 33 26 51 18
96 94 95 95 92 92 94 97 100 101 103 104 108 112 113 109 103 99 94 90 87 83 80 81 79 78 79 77 84 92 97 89 354 64 54 51 49 43 38 33 27 33 46 39
93 93 88 94 98 99 100 101 103 103 105 109 113 114 114 110 107 104 102 99 89 80 71 65 66 78 73 66 71 77 69 63 62 62 60 50 28 38 32 30 31 25 20 57
98 99 101 101 103 103 102 100 101 107 115 119 114 109 109 110 112 112 111 101 92 88 82 83 57 77 82 38 350 76 73 73 68 64 73 89 59 46 36 18 20 28 21 19
95 98 102 103 101 105 110 112 114 110 107 109 115 115 114 115 118 118 100 88 93 98 106 107 96 91 81 44 349 80 72 65 66 71 39 45 15 34 39 57 9 19 21 16
108 110 109 110 112 111 112 113 112 114 117 119 120 117 117 117 108 113 123 107 111 108 95 96 80 95 82 51 63 53 50 49 47 43 32 25 35 27 26 15 16 16 15 10
110 111 115 114 114 115 115 117 121 122 119 117 120 126 126 126 131 100 103 118 120 206 134 89 78 29 54 321 71 78 75 60 53 38 33 29 21 14 12 21 1 9 6 10
119 116 119 124 122 120 122 125 123 122 123 124 125 131 137 134 120 135 127 118 140 178 128 91 91 350 340 246 83 83 77 69 53 57 41 24 17 19 7 9 344 2 355 3
132 138 127 125 133 135 131 128 127 125 124 121 120 122 141 134 104 76 88 71 88 354 103 119 129 303 302 74 98 117 118 89 66 55 70 220 25 10 21 354 347 353 348 340
142 125 136 143 144 134 134 134 128 126 131 118 130 137 141 134 120 136 133 112 141 204 123 121 160 286 270 85 60 62 65 60 30 6 18 24 353 357 34 2 329 349 322 336
148 155 145 170 130 144 143 157 143 144 138 146 144 151 132 129 116 131 148 155 157 161 149 152 187 204 236 85 89 62 29 94 216 141 324 3 348 344 358 348 337 326 330 329
161 144 149 143 156 155 163 157 152 151 175 157 149 150 143 141 153 140 138 152 167 176 138 153 169 208 292 144 187 143 36 62 90 350 326 332 336 340 348 334 323 312 323 326